Regional Weather Roundup
Issued by NWS Mobile, AL

Home | Current Version | Previous Version | Text Only | Print | Product List | Glossary On
Versions: 1 2 3 4 5 6 7 8 9 10 11 12 13 14 15 16 17 18 19 20 21 22 23 24 25 26 27 28 29 30 31 32 33 34 35 36 37 38 39 40 41 42 43 44 45 46 47 48 49 50
000
ASUS44 KMOB 231710
RWRMOB
REGIONAL WEATHER ROUNDUP
NATIONAL WEATHER SERVICE MOBILE AL
1200 PM CDT WED JUL 23 2014

NOTE: "FAIR" INDICATES FEW OR NO CLOUDS BELOW 12,000 FEET WITH NO
      SIGNIFICANT WEATHER AND/OR OBSTRUCTIONS TO VISIBILITY.

  * THESE STATIONS ARE PART OF THE UNIVERSITY OF SOUTH ALABAMA
    MESONET AND ARE NOT UNDER NWS OR FAA QUALITY CONTROL.

ALZ061>064-231800-
COASTAL ALABAMA

CITY           SKY/WX    TMP DP  RH WIND       PRES   REMARKS
MOBILE REG APT CLOUDY    82  73  74 SE7       30.08S
BROOKLEY FIELD PTSUNNY   84  74  71 SE6       30.08S
USA CAMPUS*      N/A     82  72  69 CALM      30.05R
DOG RIVER*       N/A     82  75  78 NE5       30.07S


CITY           SKY/WX    TMP DP  RH WIND       PRES   REMARKS
MOUNT VERNON*    N/A     84  72  65 CALM      30.06F
SARALAND*      NOT AVBL
BAY MINETTE*   NOT AVBL
LOXLEY*          N/A     84  66  54 CALM      30.06S
ROBERTSDALE*     N/A     84  70  61 S3        30.06S
FAIRHOPE*        N/A     82  73  74 W2        30.06R
ELBERTA*         N/A     84  73  70 SE3       30.06R
FOLEY*         NOT AVBL
GRAND BAY*       N/A     82  73  74 S3        30.05R
DAUPHIN ISLND* NOT AVBL
BON SCOUR NWR* NOT AVBL
GULF SHORES    PTSUNNY   83  75  76 S8        30.07S

$$

ALZ051>060-231800-
INTERIOR SOUTHWEST AND SOUTH CENTRAL ALABAMA

CITY           SKY/WX    TMP DP  RH WIND       PRES   REMARKS
GREENVILLE     MOSUNNY   85  70  60 CALM      30.08S
EVERGREEN      PTSUNNY   86  71  60 CALM      30.07F
CASTLEBERRY*   NOT AVBL
ATMORE*          N/A     86  72  62 CALM      30.09S
DIXIE*         NOT AVBL
ANDALUSIA/OPP  MOSUNNY   92  68  45 CALM      30.07F HX  96
ANDALUSIA*     NOT AVBL
FLORALA APT    PTSUNNY   84  74  71 VRB3      30.09S
FLORALA*         N/A     84  72  65 SE6       30.04S

$$

FLZ001>006-231800-
WESTERN FLORIDA PANHANDLE

CITY           SKY/WX    TMP DP  RH WIND       PRES   REMARKS
PENSACOLA      MOSUNNY   84  71  65 SE8       30.06S
NAS PENSACOLA  PTSUNNY   85  74  69 S8        30.06S
MILTON         PTSUNNY   87  71  58 N5        30.07S
WHTNG S FIELD  PTSUNNY   88  70  55 S3        30.07S


CITY           SKY/WX    TMP DP  RH WIND       PRES   REMARKS
WALNUT HILL*   NOT AVBL
JAY*           NOT AVBL
DUKE FIELD     MOSUNNY   86  74  68 S7        30.07S
CRESTVIEW      PTSUNNY   86  71  60 VRB3      30.08S
VALPARAISO     MOSUNNY   86  75  69 S8        30.07S
DESTIN         MOSUNNY   86  76  71 SE8       30.07S HX  96

$$

MSZ076-079-231800-
INTERIOR SOUTHEAST MISSISSIPPI

CITY           SKY/WX    TMP DP  RH WIND       PRES   REMARKS
LEAKESVILLE*   NOT AVBL
AGRICOLA*      NOT AVBL

$$

MARINE OBSERVATIONS

STATION/POSITION TIME  TEMP    WIND        PRES    WAVE
                       AIR SEA DIR/SP/G            HT/PER
                 (UTC) (F)     (DEG/KT/KT) (MB)    (FT/S)
PASCAGOULA       1700   80     160/  7/  8 1018.1R
PETIT BOIS ISLND 1700   77     140/  3/  4 1018.6S
GRAND BAY        1500   81     110/  7     1019.0S
KATRINA CUT      1600   81     140/  6     1019.0R
CEDAR POINT      1600   81      90/  5     1018.0F
E DAUPHIN ISLAND 1600   82     130/  6/  7 1018.0R
MIDDLE BAY LIGHT 1600   82     150/  5     1018.0S
USCG MOBILE BAY  1700   82 83  130/  4/  5 1017.2S
STATE DOCKS      1700   84 82              1017.9S
MEAHER PARK      1600   83     250/  3     1017.3S
WEEKS BAY        1500   80                   N/A
FORT MORGAN      1700   82     140/  7/  9 1017.9R
12 S ORANGE BCH  1700   79 83  150/ 12/ 12 1018.3R   1/ 4
PENSACOLA BAY    1700   89 83  190/  2/  5 1018.6S
64 S DAUPHIN ISL 1558   79 85  250/ 14/ 16 1018.6
67 S FORT MORGAN 1600   75                 1018.3S

$$

SELECTED LOCATIONS ACROSS THE REGION

CITY           SKY/WX    TMP DP  RH WIND       PRES   REMARKS
NEW ORLEANS    LGT RAIN  77  72  84 CALM      30.06S
GULFPORT       CLOUDY    83  71  67 VRB3      30.07R
PASCAGOULA AP  CLOUDY    81  76  84 S3        30.07R
PASCAGOULA*      N/A     77  75  94 S2        30.07S
HATTIESBURG    SUNNY     84  73  69 VRB3      30.08F
LAUREL         SUNNY     82  70  65 SW3       30.09S
MERIDIAN       MOSUNNY   86  70  58 CALM      30.07S
JACKSON        PTSUNNY   86  71  60 CALM      30.07S
MONTGOMERY     PTSUNNY   88  71  57 CALM      30.07F
TROY           MOSUNNY   87  71  58 SE7       30.09S
KINSTON*       NOT AVBL
GENEVA*          N/A     88  70  55 CALM      30.08F
ASHFORD*       NOT AVBL
DOTHAN         MOSUNNY   86  70  58 VRB6      30.11F
PANAMA CITY    SUNNY     87  73  62 S12       30.07S

$$




USA.gov is the U.S. government's official web portal to all federal, state and local government web resources and services.